Location: Donald C. Martin Observatory
(38.3885°N, 82.3916°W)
Time: 14:12:28
(UTC-04:00)

Daily predictions for brighter satellites

Satellite Brightness Start Highest point End
(mag) Time Altitude Azimuth Time Altitude Azimuth Time Altitude Azimuth
Milstar 3 Cent rocket 3.8 19:40:53 10° SW 19:45:39 21° S 19:49:21 10° ESE
Cosmos 1656 Rocket 3.7 19:40:52 10° NNW 19:46:27 61° ENE 19:51:56 10° SE
METEOR-M 4.3 19:44:49 10° SSE 19:50:11 85° W 19:55:34 10° NNW
FENGYUN 3A 3.7 19:45:54 10° SSE 19:51:08 57° ENE 19:56:24 10° N
ORS 1 (USA 231) 4.4 19:50:59 10° WNW 19:53:56 86° SSW 19:56:45 11° ESE
NOSS 3-1 (A) 4.2 19:50:09 10° NNW 19:57:47 64° NE 20:06:10 10° SE
Cosmos 841 Rocket 3.6 19:54:28 10° SSW 19:59:36 79° WNW 20:04:47 10° NNE
CZ-4 R/B 4.3 19:57:05 10° SSW 20:00:26 23° W 20:03:51 10° NW
H-2A R/B 3.4 19:57:25 10° SE 20:00:44 31° ENE 20:04:06 10° N
Cosmos 1544 3.7 19:57:48 10° SSE 20:01:03 32° E 20:04:19 10° NNE
SJ-6B 3.6 19:58:54 10° SE 20:02:24 30° ENE 20:05:52 10° N
NOSS 3-1 (C) 4.2 19:57:32 10° NNW 20:05:18 89° ENE 20:13:49 10° SSE
BREEZE-M (TANK) 4.1 19:47:54 10° WNW 20:05:29 81° NNE 20:09:26 12° ESE
USA 81 4.0 20:02:05 10° N 20:07:24 87° E 20:12:40 10° S
Cosmos 1953 3.9 20:05:00 10° SE 20:07:31 16° E 20:10:03 10° NE
COSMO-SKYMED 1 4.0 20:03:56 10° N 20:08:02 42° WNW 20:12:06 10° SW
Cosmos 540 Rocket 3.4 20:03:44 10° S 20:08:44 61° ESE 20:13:46 10° NNE
Cosmos 1378 4.0 20:10:35 10° NNW 20:14:17 54° W 20:17:57 10° S
SL-27 R/B 3.2 20:11:13 10° SSE 20:14:25 31° E 20:17:40 10° NE
COSMOS 2406 3.3 20:15:16 10° SSW 20:20:58 84° WNW 20:26:45 10° NNE
Cosmos 1707 4.3 20:18:15 10° NNW 20:21:56 39° W 20:25:35 10° SSW
SJ 16-02 2.1 20:18:44 10° N 20:22:41 32° ENE 20:24:56 20° ESE
HJ-1C 3.6 20:19:44 10° SSE 20:22:57 46° ENE 20:26:11 10° N
In-Cosmos 22 4.2 20:17:17 10° N 20:22:59 64° E 20:28:42 10° SSE
Meteor 1-22 Rocket 4.2 20:19:29 10° S 20:25:11 88° ESE 20:30:42 10° N
Cosmos 1356 Rocket 3.7 20:21:27 10° NNW 20:25:46 76° W 20:30:02 10° S
Cosmos 1674 4.1 20:23:13 10° NNE 20:25:44 20° ENE 20:25:44 20° ENE
Cosmos 1766 3.2 20:23:42 10° S 20:27:37 85° W 20:31:33 10° N
Resurs 1-3 4.4 20:33:13 26° ESE 20:34:38 32° ENE 20:38:31 10° N
ISS -3.4 20:35:29 10° WSW 20:38:42 61° NW 20:40:34 23° NE
FengYun 1-2 T 4.2 20:33:06 10° SSE 20:38:43 87° WSW 20:44:18 10° NNW
ALOS 3.5 20:34:25 10° S 20:38:51 43° W 20:43:19 10° NNW
Cosmos 2074 Rocket 4.3 20:33:32 10° SSW 20:39:42 69° W 20:45:54 10° N
Cosmos 2154 Rocket 4.0 20:34:01 10° S 20:40:07 61° E 20:46:17 10° NNE
MOS 1-B Rocket 4.3 20:37:07 18° SE 20:41:07 41° ENE 20:46:23 10° N
BREEZE-M DEB (TANK) 3.8 20:31:21 10° WSW 20:45:24 82° NNW 20:48:26 22° ENE
Meteor 1-21 Rocket 4.5 20:43:53 10° N 20:49:22 45° ENE 20:51:42 30° SE
Elektron 1 4.0 20:49:43 10° NNW 20:52:34 51° NNE 20:52:34 51° NNE
Spot 2 Rocket 3.7 20:50:59 33° SE 20:52:51 48° ENE 20:57:42 10° N
Cosmos 1758 3.1 20:48:57 10° S 20:52:56 72° E 20:56:56 10° NNE
Cosmos 1812 Rocket 3.7 20:50:19 10° SSW 20:54:46 75° W 20:59:15 10° N
Cosmos 2341 Rocket 4.0 20:49:19 10° SSE 20:55:21 56° E 21:01:26 10° NNE
Cosmos 2082 Rocket 4.0 20:52:40 10° SSE 21:03:56 - NE 20:53:28 14° SSE
Cosmos 1805 3.7 20:54:02 10° SSW 20:57:54 62° W 21:01:46 10° N
ATLAS 5 CENTAUR R/B 3.3 20:56:07 10° S 20:57:40 20° SSE 20:57:40 20° SSE
Resurs 01 Rocket 1.5 21:01:56 44° SSE 21:03:15 72° ENE 21:07:39 10° N
GP-B 3.0 21:00:37 10° N 21:05:05 89° E 21:08:55 14° S
CZ-2D R/B 3.2 21:04:04 43° S 21:05:14 80° WSW 21:09:05 10° NNW
Cosmos 2278 4.1 21:01:14 10° N 21:06:38 42° ENE 21:07:09 41° ENE
ATLAS CENTAUR R/B 4.0 20:56:22 10° NW 21:07:17 47° WSW 21:10:26 19° S
Cosmos 1939 Rocket 4.4 21:12:33 24° NNE 21:12:33 24° NNE 21:14:24 10° N
Nadezhda 3 Rocket 3.9 21:05:04 10° N 21:11:23 87° W 21:17:36 10° S
Cosmos 1656 4.2 21:10:57 10° N 21:16:07 41° ENE 21:16:07 41° ENE
Cosmos 2218 Rocket 4.4 21:20:07 41° ENE 21:20:07 41° ENE 21:24:55 10° NNE
Cosmos 2285 Rocket 3.9 21:16:00 10° S 21:22:24 76° ESE 21:28:51 10° NNE
Cosmos 1809 Rocket 4.3 21:18:22 15° S 21:23:27 70° E 21:29:32 10° NNE
Cosmos 1697 Rocket 3.7 21:18:45 10° N 21:22:57 31° NE 21:22:57 31° NE
Envisat 2.9 21:24:15 56° S 21:25:23 86° WSW 21:30:30 10° NNW
Cosmos 1980 Rocket 3.9 21:21:49 10° N 21:24:37 19° NE 21:24:37 19° NE
Cosmos 1295 Rocket 4.3 21:20:31 10° S 21:26:36 88° E 21:32:43 10° N
Okean 3 Rocket 3.8 21:25:26 10° N 21:29:16 65° NNW 21:29:16 65° NNW
Gbstr 26 Del rocket 4.0 21:27:31 10° SW 21:31:04 46° S 21:31:04 46° S
SL-8 Rocket 3.8 21:38:36 67° SSE 21:39:27 81° E 21:45:38 10° N
Meteor 2-15 4.2 21:33:33 10° N 21:39:38 77° E 21:39:39 77° E
ATLAS 2AS CENTAUR R/B 3.0 21:31:52 10° NNW 21:39:46 59° NE 21:40:35 56° ENE
Cosmos 1953 4.1 21:40:01 10° SW 21:43:38 31° WNW 21:47:18 10° NNW
Meteor 2-21 Rocket 4.4 21:50:33 78° NNE 21:50:33 78° NNE 21:56:17 10° N
H-2A R/B 4.5 21:57:09 11° NNE 21:57:09 11° NNE 21:57:18 10° NNE
NOSS 3-3 (A) 4.1 21:50:50 10° SSW 22:05:31 - NNE 21:55:46 62° SW
NOSS 3-3 (C) 4.2 21:50:56 10° SSW 22:05:39 - NNE 21:55:39 58° SW
SJ 16-02 3.6 21:57:52 10° NW 22:01:01 20° W 22:01:59 18° WSW
Milstar 3 Cent rocket 4.5 22:18:46 10° WSW 22:19:07 12° WSW 22:19:07 12° WSW
Centaur D AC-29 4.1 22:23:09 10° WSW 22:24:06 12° SW 22:24:06 12° SW
FALCON 9 R/B 4.2 22:35:01 10° W 22:36:10 20° WSW 22:36:10 20° WSW
